FENGYUN 1C DEB, 29754

Orbit data source: Space-Track

FENGYUN 1C DEB, 29754 is space debris in SSO originally from a launch on Mon, 10 May 1999 UTC launched from the Taiyaun Space Center, China (TSC). Fengyun 1C debris stems from the Chinese weather satellite Fengyun-1C, which was intentionally destroyed by a Chinese anti-satellite missile in 2007. This event dramatically increased the amount of space debris, with thousands of trackable fragments posing hazards to satellites and human spaceflight. The Fengyun 1C debris cloud has become a focal point in discussions about space sustainability and the need for international regulations to prevent the creation of new debris.

Loading next visibility...
Identifier
29754, 1999-025AU
Orbit
SSO
Country
Flag of CNCN / PRC
Related business
Manufacturer
Unknown
Mission
Spacecraft
Bus & Motor
Unknown
Mass
Unknown
Launch date (UTC)
1999-05-10 (26 years ago)
Launch vehicle
Unknown
Launch site
Taiyaun Space Center, China (TSC)
Object type
Payload
Rocket body
Debris
Shape & HBR
Unknown shape, 0.1 m
Radar Cross Section
Small (<0.1 m²)

Expand to show TLE details & history
Last TLE update: 9 hours ago

TLE from 9 hours ago
0 FENGYUN 1C DEB
1 29754U 99025AU  25309.08813663  .00001780  00000-0  87042-3 0  9996
2 29754  98.8848  51.7399 0035130 349.4739 189.9910 14.18926699968206
Epoch: 2025-11-05T02:06Z
TLE epoch observation values (Epoch: 2025-11-05T02:06:55.004Z)
Latitude
0.48451°
Longitude
155.52023°
Altitude
856.773 km
Speed
7.411 km/s
True Right ascension
15h 27m 15s
True Declination
0° 28' 54"
Sunlit
Object was in daylight at epoch
Visualization orbit readout
Latitude
Unknown
Longitude
Unknown
Altitude
Unknown
Speed
Unknown
Apparent Right ascension
Unknown
Apparent Declination
Unknown
Sunlit
N/A
Visualization observer readout
Local Sidereal Time
07:20:07
Azimuth
Unknown
Elevation
Unknown
Doppler factor
Unknown
Orbital elements
Apogee altitude
851.462 km
Perigee altitude
800.845 km
Semi-major axis
7,204.29 km
Eccentricity
0.00351
Inclination
98.8848°
RAAN
51.7399°
Arg. of periapsis
349.4739°
True anomaly
189.92146°
Mean anomaly
189.991°
Eccentric anomaly
189.9562°
Mean motion
3.54941 °/min
Orbital period
101.43 mins
BSTAR
0.00087042
Loading maneuver chart data...
Computing Atmospheric mass density...

Documentation

Showing up to 5 results
|